Ponca City, OK

7:23 PM CDT on April 24, 2017 (GMT -0500)
Ponca City Municipal

Weather History for KPNC - July, 2012

Change the Weather History Date:

Thursday, July 26, 2012

  Actual Average Record
Temperature  
Mean Temperature 88 °F -  
Max Temperature 98 °F 96 °F 107 °F (1952)
Min Temperature 80 °F 71 °F 55 °F (2004)
Cooling Degree Days 24    
Growing Degree Days 38 (Base 50)    
Moisture  
Dew Point 63 °F    
Average Humidity 43    
Maximum Humidity 60    
Minimum Humidity 30    
Precipitation  
Precipitation 0.00 in - - ()
Sea Level Pressure  
Sea Level Pressure 29.80 in    
Wind  
Wind Speed 6 mph (East)    
Max Wind Speed 14 mph    
Max Gust Speed 17 mph    
Visibility 10 miles    
Events      
Averages and records for this station are not official NWS values.
T = Trace of Precipitation, MM = Missing Value Source: NWS Daily Summary

Daily Weather History Graph

Daily Weather History Graph

Search for Another Location

Airport or City:

Trip Planner

Search our weather history database for the weather conditions in past years. The results will help you decide how hot, cold, wet, or windy it might be!

Date:

Astronomy

Jul. 26, 2012 Rise Set
Actual Time 6:29 AM CDT 8:39 PM CDT
Civil Twilight 6:00 AM CDT 9:08 PM CDT
Nautical Twilight 5:25 AM CDT 9:43 PM CDT
Astronomical Twilight 4:46 AM CDT 10:22 PM CDT
Moon 2:29 PM CDT (7/26) 12:20 AM CDT (7/26)
Length of Visible Light 15h 07m
Length of Day
14h 09m
First Quarter, 54% of the Moon is Illuminated
Jul 26
First Quarter
Aug 1
Full
Aug 9
Last Quarter
Aug 17
New
Aug 24
First Quarter

Hourly Weather History & Observations

Time (CDT) Temp. Heat Index Dew Point Humidity Pressure Visibility Wind Dir Wind Speed Gust Speed Precip Events Conditions
12:53 AM 90.0 °F 90.6 °F 63.0 °F 40% 29.70 in 10.0 mi South 8.1 mph 17.3 mph N/A   Partly Cloudy
1:53 AM 88.0 °F 88.7 °F 63.0 °F 43% 29.71 in 10.0 mi South 5.8 mph - N/A   Clear
2:53 AM 87.1 °F 88.3 °F 64.0 °F 46% 29.76 in 10.0 mi WNW 4.6 mph - N/A   Scattered Clouds
3:53 AM 87.1 °F 87.8 °F 63.0 °F 44% 29.76 in 10.0 mi West 5.8 mph - N/A   Clear
4:53 AM 84.0 °F 84.9 °F 63.0 °F 49% 29.77 in 10.0 mi Calm Calm - N/A   Mostly Cloudy
5:53 AM 82.0 °F 83.4 °F 64.0 °F 54% 29.78 in 10.0 mi NE 5.8 mph - N/A   Clear
6:53 AM 82.0 °F 83.1 °F 63.0 °F 52% 29.78 in 10.0 mi ENE 10.4 mph - N/A   Mostly Cloudy
7:53 AM 82.9 °F 84.0 °F 63.0 °F 51% 29.78 in 10.0 mi East 8.1 mph - N/A   Clear
8:53 AM 86.0 °F 87.3 °F 64.0 °F 48% 29.80 in 10.0 mi East 13.8 mph - N/A   Clear
9:53 AM 87.1 °F 88.3 °F 64.0 °F 46% 29.81 in 10.0 mi ESE 8.1 mph - 0.00 in   Mostly Cloudy
10:53 AM 88.0 °F 88.7 °F 63.0 °F 43% 29.83 in 10.0 mi Calm Calm - N/A   Partly Cloudy
11:53 AM 89.1 °F 90.0 °F 63.0 °F 42% 29.85 in 10.0 mi Calm Calm - N/A   Clear
12:53 PM 95.0 °F 95.2 °F 61.0 °F 32% 29.84 in 10.0 mi North 8.1 mph - N/A   Clear
1:53 PM 95.0 °F 95.2 °F 61.0 °F 32% 29.83 in 10.0 mi East 9.2 mph - N/A   Clear
2:53 PM 91.9 °F 91.8 °F 61.0 °F 35% 29.83 in 10.0 mi East 4.6 mph - N/A   Mostly Cloudy
3:53 PM 93.0 °F 93.8 °F 62.1 °F 36% 29.81 in 10.0 mi East 5.8 mph - N/A   Clear
4:53 PM 95.0 °F 95.2 °F 61.0 °F 32% 29.80 in 10.0 mi East 5.8 mph - N/A   Partly Cloudy
5:53 PM 96.1 °F 96.0 °F 60.1 °F 30% 29.78 in 10.0 mi Variable 3.5 mph - N/A   Clear
6:53 PM 96.1 °F 96.0 °F 60.1 °F 30% 29.78 in 10.0 mi East 4.6 mph - N/A   Clear
7:53 PM 93.9 °F 93.6 °F 60.1 °F 32% 29.79 in 10.0 mi SSE 4.6 mph - N/A   Clear
8:53 PM 89.1 °F 89.3 °F 62.1 °F 40% 29.81 in 10.0 mi Calm Calm - N/A   Clear
9:53 PM 84.0 °F 85.4 °F 64.0 °F 51% 29.84 in 10.0 mi Calm Calm - N/A   Clear
10:53 PM 81.0 °F 82.7 °F 64.9 °F 58% 29.87 in 10.0 mi Calm Calm - N/A   Clear
11:53 PM 80.1 °F 81.9 °F 64.9 °F 60% 29.88 in 10.0 mi Calm Calm - N/A   Clear